Location: Pulvis Stellarum Observatory
(41.6962°N, 71.4263°W)
Time: 20:11:33
(UTC-05:00)

Daily predictions for brighter satellites

Satellite Brightness Start Highest point End
(mag) Time Altitude Azimuth Time Altitude Azimuth Time Altitude Azimuth
COSMO-SKYMED 1 3.4 17:15:09 10° NNE 17:19:04 32° E 17:22:57 10° SSE
Cosmos 1300 2.6 17:16:42 10° N 17:20:33 71° E 17:24:21 10° SSE
Meteor 1-27 4.4 17:15:31 10° N 17:21:14 54° ENE 17:26:56 10° SSE
Thor Agena Rocket 3.6 17:16:09 10° NNE 17:21:23 72° ESE 17:26:31 10° S
AQUARIUS 4.3 17:17:34 10° S 17:22:04 81° WSW 17:26:36 10° NNW
SL-16 R/B 2.7 17:17:27 10° S 17:22:39 39° ESE 17:27:52 10° NE
OTV 4 3.7 17:22:07 10° SW 17:23:00 11° SSW 17:23:53 10° S
COSMOS 2428 4.4 17:19:41 10° WSW 17:24:43 31° NW 17:29:47 10° N
SPOT 3 Rocket 3.6 17:20:12 10° SSE 17:25:21 88° WSW 17:30:34 10° NNW
Meteor 2-10 4.1 17:20:19 10° N 17:25:22 56° ENE 17:30:32 10° SSE
CZ-3A R/B 3.3 17:25:12 10° NW 17:30:16 40° NNE 17:35:11 10° E
Cosmos 2297 3.8 17:29:40 10° NNW 17:35:18 58° ENE 17:40:57 10° SE
SL-14 R/B 3.4 17:31:49 10° S 17:35:45 83° W 17:39:46 10° N
FREGAT/IRIS 4.4 17:34:18 10° E 17:35:57 14° ENE 17:37:35 10° NE
Cosmos 1484 Rocket 2.8 17:33:50 10° SSE 17:37:44 69° ENE 17:41:44 10° N
Cosmos 304 Rocket 3.8 17:33:02 10° S 17:37:45 61° ESE 17:42:30 10° NNE
Resurs 01 Rocket 3.3 17:35:47 10° E 17:37:54 13° ENE 17:40:02 10° NNE
Cosmos 1340 Rocket 2.7 17:35:44 10° S 17:39:37 63° E 17:43:30 10° NNE
Cosmos 2279 Rocket 4.0 17:37:34 10° N 17:43:49 76° E 17:50:03 10° SSE
Meteor 1-28 Rocket 3.6 17:41:51 10° NNE 17:45:22 40° E 17:48:53 10° S
Lacrosse 4 Rocket 2.4 17:42:39 10° N 17:45:59 24° NE 17:48:49 12° ESE
Cosmos 1151 Rocket 3.9 17:42:28 10° NNW 17:46:38 53° W 17:50:50 10° S
METEOR-M 4.5 17:45:38 10° SE 17:50:37 41° ENE 17:55:37 10° N
IDEFIX/ARIANE 42P 4.2 17:47:30 10° SSW 17:52:19 38° W 17:57:12 10° NNW
Cosmos 1869 4.3 17:50:49 10° NNE 17:54:11 24° ENE 17:57:31 10° SE
Cosmos 540 Rocket 4.5 17:49:49 10° SW 17:54:48 48° WNW 17:59:48 10° N
Aureole 2 Rocket 3.6 17:51:14 10° SW 17:54:55 50° WNW 17:58:57 10° N
Tiangong 1 3.3 17:55:08 10° SSE 17:56:17 12° SE 17:57:03 11° SE
NOAA 12 4.2 17:54:19 10° SSE 17:59:22 52° ENE 18:04:29 10° N
USA 215 3.6 17:53:29 11° ESE 17:59:33 48° NNE 18:05:47 10° NW
Cosmos 773 Rocket 4.3 17:55:20 10° S 18:00:10 42° ESE 18:04:53 11° NE
Cosmos 2058 3.6 17:57:41 10° SSW 18:01:43 56° W 18:05:46 10° N
Nadezhda 4 Rocket 4.1 17:57:20 10° SSE 18:03:26 56° E 18:09:36 10° NNE
ATLAS 5 CENTAUR R/B 4.1 18:01:48 10° N 18:04:35 13° NNE 18:05:48 13° NE
Cosmos 1805 Rocket 3.5 18:00:51 10° S 18:05:19 88° E 18:09:48 10° N
Lacrosse 5 3.9 18:03:13 10° NNW 18:05:54 14° N 18:08:06 11° NNE
SKYMED 2 3.8 18:02:54 10° N 18:07:15 74° WNW 18:11:34 10° SSW
Cosmos 2242 Rocket 4.0 18:03:21 10° N 18:07:31 38° ENE 18:11:40 10° SE
Cosmos 1461 3.2 18:04:28 10° SW 18:08:37 63° NW 18:12:04 14° NNE
Cosmos 1900 4.5 18:03:40 10° NW 18:08:38 78° WSW 18:13:38 10° SSE
Cosmos 1626 2.1 18:10:42 10° S 18:14:26 90° W 18:18:12 10° N
Aureole 1 Rocket 3.9 18:11:21 10° S 18:16:41 60° ESE 18:23:42 10° NNE
Sich 1 3.0 18:13:56 10° S 18:18:21 79° E 18:22:48 10° N
Cosmos 2219 Rocket 4.4 18:16:14 10° W 18:20:26 21° NW 18:24:38 10° N
Lacrosse 5 rocket 3.8 18:18:27 10° WNW 18:21:24 21° SW 18:24:28 10° S
Cosmos 1356 Rocket 3.4 18:17:46 10° SSW 18:21:46 78° WNW 18:25:46 10° N
Cosmos 1943 Rocket 4.1 18:20:13 10° NNE 18:21:10 12° NNE 18:21:10 12° NNE
ALOS 2.6 18:19:46 10° SE 18:24:08 41° ENE 18:28:31 10° N
Cosmos 1092 Rocket 4.0 18:19:33 10° S 18:25:46 61° E 18:32:01 10° NNE
Cosmos 2333 Rocket 4.3 18:22:44 10° WSW 18:27:11 23° NW 18:31:42 10° N
Cosmos 1603 3.9 18:22:02 10° S 18:27:24 49° ESE 18:30:06 27° NE
Cosmos 1633 Rocket 3.0 18:24:17 10° S 18:28:41 90° SE 18:33:07 10° N
FengYun 1-2 T 4.3 18:24:48 10° SE 18:30:10 53° ENE 18:35:31 10° N
Cosmos 292 Rocket 3.8 18:29:47 10° S 18:34:22 51° ESE 18:35:33 41° ENE
Coronas F rocket 2.9 18:32:27 10° SSW 18:33:37 24° SSW 18:33:37 24° SSW
Cosmos 1455 2.7 18:32:28 10° NNW 18:36:15 61° W 18:40:00 10° S
USA 229 DEB 3.6 18:35:58 10° SSW 18:42:49 83° ESE 18:47:09 25° NE
USA 229 3.6 18:36:04 10° SSW 18:42:54 83° SE 18:47:12 26° NE
Abrixas 4.5 18:41:07 10° WNW 18:42:57 22° NNW 18:42:57 22° NNW
Cosmos 1184 Rocket 4.1 18:43:40 10° SSW 18:46:51 41° WNW 18:48:43 21° NNW
SJ-6B 3.5 18:44:39 10° S 18:48:41 59° W 18:52:47 10° NNW
Cosmos 2195 Rocket 4.4 18:43:02 10° S 18:49:00 60° E 18:55:03 10° NNE
Spot 2 Rocket 3.3 18:44:13 10° SSE 18:49:12 68° ENE 18:54:13 10° N
Cosmos 1862 Rocket 4.3 18:47:13 10° N 18:49:59 37° NNE 18:49:59 37° NNE
Iridium 4 Rocket 3.1 18:48:58 10° S 18:53:25 78° W 18:57:11 13° N
SL-19 R/B 4.3 18:50:46 10° SSE 18:56:38 85° WSW 19:02:16 10° NNW
Cosmos 2369 Rocket 2.8 18:56:47 10° NNW 19:01:00 40° NNE 19:01:00 40° NNE
H-2A ROCKET BODY 3.9 18:48:24 10° WSW 19:06:15 34° SSW 19:09:18 23° SSE
SL-16 R/B 3.8 19:01:49 10° WSW 19:06:49 31° NW 19:11:51 10° N
Resurs 01 Rocket 1.9 19:12:15 38° S 19:13:50 65° WSW 19:18:16 10° NNW
Cosmos 1417 Rocket 4.4 19:07:44 10° N 19:13:16 62° NE 19:13:16 62° NE
Cosmos 923 Rocket 4.4 19:09:57 10° SSW 19:15:05 60° WNW 19:17:00 37° N
Cosmos 1933 Rocket 4.0 19:11:59 10° SSW 19:16:23 60° W 19:16:31 60° WNW
Cosmos 1680 Rocket 3.7 19:16:18 10° SSW 19:21:29 69° WNW 19:22:05 62° NNW
Cosmos 1655 Rocket 3.9 19:16:20 10° S 19:22:42 82° E 19:24:06 57° NNE
Lacrosse 4 Rocket 3.0 19:21:07 10° NW 19:24:42 31° WSW 19:25:17 29° SW
CZ-4C R/B 4.0 19:19:20 10° NNW 19:23:28 26° NNE 19:23:28 26° NNE
FENGYUN 3A 4.5 19:25:06 10° S 19:30:16 49° W 19:35:30 10° NNW
NOSS 3-1 (C) 3.8 19:28:38 10° SSW 19:32:51 52° SSW 19:32:51 52° SSW
USA 215 3.7 19:40:52 46° S 19:42:27 57° SW 19:48:54 10° NW
Cosmos 1943 4.3 19:38:40 10° SSW 19:41:55 36° SSW 19:41:55 36° SSW
ATLAS 3B R/B 4.4 19:43:09 10° NNW 19:45:53 18° N 19:45:53 18° N
Lacrosse 5 4.2 19:46:16 10° NNW 19:47:19 15° NNW 19:47:19 15° NNW
ATLAS 5 CENTAUR R/B 3.9 19:45:01 10° NNW 19:47:23 24° NNW 19:47:23 24° NNW
Cosmos 1943 Rocket 4.5 20:01:52 10° NNW 20:02:44 15° NNW 20:02:44 15° NNW
